Time,TemperatureF,DewpointF,PressureIn,WindDirection,WindDirectionDegrees,WindSpeedMPH,WindSpeedGustMPH,Humidity,HourlyPrecipIn,Conditions,Clouds,dailyrainin,SoftwareType,DateUTC
2013-09-15 00:01:00,49.1,46.9,30.07,WSW,257,1.0,3.0,92,0.00,,---,0.00,VWS V14.01,2013-09-15 04:01:00,
2013-09-15 00:06:00,49.1,46.9,30.07,WSW,257,0.0,2.0,92,0.00,,---,0.00,VWS V14.01,2013-09-15 04:06:00,
2013-09-15 00:11:00,49.2,47.0,30.07,WSW,257,0.0,0.0,92,0.00,,---,0.00,VWS V14.01,2013-09-15 04:11:00,
2013-09-15 00:16:00,49.2,47.0,30.07,WSW,257,0.0,0.0,92,0.00,,---,0.00,VWS V14.01,2013-09-15 04:16:00,
2013-09-15 00:21:00,49.2,47.0,30.07,WSW,257,0.0,0.0,92,0.00,,---,0.00,VWS V14.01,2013-09-15 04:21:00,
2013-09-15 00:26:00,49.2,47.0,30.07,WSW,257,0.0,0.0,92,0.00,,---,0.00,VWS V14.01,2013-09-15 04:26:00,
2013-09-15 00:31:00,49.2,47.0,30.07,WSW,257,0.0,1.0,92,0.00,,---,0.00,VWS V14.01,2013-09-15 04:31:00,
2013-09-15 00:36:00,49.3,47.4,30.07,WSW,257,0.0,2.0,93,0.00,,---,0.00,VWS V14.01,2013-09-15 04:36:00,
2013-09-15 00:41:00,49.3,47.4,30.07,WSW,257,0.0,0.0,93,0.00,,---,0.00,VWS V14.01,2013-09-15 04:41:00,
2013-09-15 00:46:00,49.3,47.4,30.07,WSW,257,0.0,0.0,93,0.00,,---,0.00,VWS V14.01,2013-09-15 04:46:00,
2013-09-15 00:51:00,49.2,47.0,30.07,WSW,257,0.0,0.0,92,0.00,,---,0.00,VWS V14.01,2013-09-15 04:51:00,
2013-09-15 00:56:00,49.1,46.9,30.07,WSW,257,0.0,0.0,92,0.00,,---,0.00,VWS V14.01,2013-09-15 04:56:00,
2013-09-15 01:01:00,48.9,46.7,30.06,WSW,257,0.0,0.0,92,0.00,,---,0.00,VWS V14.01,2013-09-15 05:01:00,
2013-09-15 01:06:00,48.8,46.6,30.06,WSW,257,0.0,0.0,92,0.00,,---,0.00,VWS V14.01,2013-09-15 05:06:00,
2013-09-15 01:11:00,48.8,46.6,30.07,WSW,257,0.0,1.0,92,0.00,,---,0.00,VWS V14.01,2013-09-15 05:11:00,
2013-09-15 01:16:00,48.8,46.6,30.07,WSW,257,0.0,0.0,92,0.00,,---,0.00,VWS V14.01,2013-09-15 05:16:00,
2013-09-15 01:21:00,48.8,46.6,30.07,WSW,257,0.0,1.0,92,0.00,,---,0.00,VWS V14.01,2013-09-15 05:21:00,
2013-09-15 01:26:00,48.9,47.0,30.06,WSW,257,1.0,2.0,93,0.00,,---,0.00,VWS V14.01,2013-09-15 05:26:00,
2013-09-15 01:31:00,49.1,47.5,30.06,WSW,257,0.0,1.0,94,0.00,,---,0.00,VWS V14.01,2013-09-15 05:31:00,
2013-09-15 01:36:00,49.2,47.5,30.06,WSW,257,0.0,2.0,94,0.00,,---,0.00,VWS V14.01,2013-09-15 05:36:00,
2013-09-15 01:41:00,49.3,47.7,30.06,WSW,257,1.0,2.0,94,0.00,,---,0.00,VWS V14.01,2013-09-15 05:41:00,
2013-09-15 01:46:00,49.5,47.8,30.06,WSW,257,1.0,3.0,94,0.00,,---,0.00,VWS V14.01,2013-09-15 05:46:00,
2013-09-15 01:51:00,49.7,48.0,30.06,WSW,257,2.0,3.0,94,0.00,,---,0.00,VWS V14.01,2013-09-15 05:51:00,
2013-09-15 01:56:00,49.9,48.2,30.06,WSW,257,2.0,3.0,94,0.00,,---,0.00,VWS V14.01,2013-09-15 05:56:00,
2013-09-15 02:01:00,50.1,48.4,30.05,WSW,257,1.0,2.0,94,0.00,,---,0.00,VWS V14.01,2013-09-15 06:01:00,
2013-09-15 02:06:00,50.3,48.6,30.05,WSW,257,1.0,3.0,94,0.00,,---,0.00,VWS V14.01,2013-09-15 06:06:00,
2013-09-15 02:11:00,50.4,48.5,30.05,WSW,257,2.0,3.0,93,0.00,,---,0.00,VWS V14.01,2013-09-15 06:11:00,
2013-09-15 02:16:00,50.5,48.6,30.05,WSW,257,0.0,2.0,93,0.00,,---,0.00,VWS V14.01,2013-09-15 06:16:00,
2013-09-15 02:21:00,50.5,48.3,30.05,WSW,257,2.0,3.0,92,0.00,,---,0.00,VWS V14.01,2013-09-15 06:21:00,
2013-09-15 02:26:00,50.5,48.0,30.05,WSW,257,2.0,3.0,91,0.00,,---,0.00,VWS V14.01,2013-09-15 06:26:00,
2013-09-15 02:31:00,50.6,48.1,30.05,WSW,257,0.0,2.0,91,0.00,,---,0.00,VWS V14.01,2013-09-15 06:31:00,
2013-09-15 02:36:00,50.6,47.8,30.05,WSW,256,3.0,4.0,90,0.00,,---,0.00,VWS V14.01,2013-09-15 06:36:00,
2013-09-15 02:41:00,50.6,47.8,30.05,WSW,256,2.0,3.0,90,0.00,,---,0.00,VWS V14.01,2013-09-15 06:41:00,
2013-09-15 02:46:00,50.6,47.5,30.05,WSW,256,1.0,4.0,89,0.00,,---,0.00,VWS V14.01,2013-09-15 06:46:00,
2013-09-15 02:51:00,50.7,47.6,30.05,WSW,256,0.0,2.0,89,0.00,,---,0.00,VWS V14.01,2013-09-15 06:51:00,
2013-09-15 02:56:00,50.8,47.7,30.05,WSW,256,2.0,3.0,89,0.00,,---,0.00,VWS V14.01,2013-09-15 06:56:00,
2013-09-15 03:01:00,50.9,47.8,30.05,WSW,256,3.0,3.0,89,0.00,,---,0.00,VWS V14.01,2013-09-15 07:01:00,
2013-09-15 03:06:00,51.0,47.6,30.05,WSW,256,2.0,4.0,88,0.00,,---,0.00,VWS V14.01,2013-09-15 07:06:00,
2013-09-15 03:11:00,51.1,47.7,30.06,WSW,256,2.0,3.0,88,0.00,,---,0.00,VWS V14.01,2013-09-15 07:11:00,
2013-09-15 03:16:00,51.2,47.5,30.06,WSW,256,1.0,3.0,87,0.00,,---,0.00,VWS V14.01,2013-09-15 07:16:00,
2013-09-15 03:21:00,51.3,47.6,30.05,WSW,256,1.0,3.0,87,0.00,,---,0.00,VWS V14.01,2013-09-15 07:21:00,
2013-09-15 03:26:00,51.4,47.7,30.05,WSW,256,1.0,3.0,87,0.00,,---,0.00,VWS V14.01,2013-09-15 07:26:00,
2013-09-15 03:31:00,51.4,47.4,30.05,WSW,256,1.0,3.0,86,0.00,,---,0.00,VWS V14.01,2013-09-15 07:31:00,
2013-09-15 03:36:00,51.5,47.2,30.05,WSW,256,1.0,3.0,85,0.00,,---,0.00,VWS V14.01,2013-09-15 07:36:00,
2013-09-15 03:41:00,51.5,47.2,30.05,WSW,256,2.0,3.0,85,0.00,,---,0.00,VWS V14.01,2013-09-15 07:41:00,
2013-09-15 03:46:00,51.6,46.9,30.05,WSW,256,2.0,3.0,84,0.00,,---,0.00,VWS V14.01,2013-09-15 07:46:00,
2013-09-15 03:51:00,51.6,46.9,30.05,WSW,255,4.0,4.0,84,0.00,,---,0.00,VWS V14.01,2013-09-15 07:51:00,
2013-09-15 03:56:00,51.7,46.7,30.05,WSW,254,2.0,4.0,83,0.00,,---,0.00,VWS V14.01,2013-09-15 07:56:00,
2013-09-15 04:01:00,51.8,46.5,30.05,WSW,254,1.0,2.0,82,0.00,,---,0.00,VWS V14.01,2013-09-15 08:01:00,
2013-09-15 04:06:00,51.8,46.8,30.05,WSW,254,0.0,1.0,83,0.00,,---,0.00,VWS V14.01,2013-09-15 08:06:00,
2013-09-15 04:11:00,51.9,46.6,30.05,WSW,254,0.0,2.0,82,0.00,,---,0.00,VWS V14.01,2013-09-15 08:11:00,
2013-09-15 04:16:00,51.9,46.6,30.05,WSW,254,0.0,0.0,82,0.00,,---,0.00,VWS V14.01,2013-09-15 08:16:00,
2013-09-15 04:21:00,52.0,46.4,30.05,WSW,254,1.0,2.0,81,0.00,,---,0.00,VWS V14.01,2013-09-15 08:21:00,
2013-09-15 04:26:00,52.1,46.5,30.06,WSW,254,1.0,2.0,81,0.00,,---,0.00,VWS V14.01,2013-09-15 08:26:00,
2013-09-15 04:31:00,52.1,46.5,30.06,WSW,254,1.0,2.0,81,0.00,,---,0.00,VWS V14.01,2013-09-15 08:31:00,
2013-09-15 04:36:00,52.2,46.5,30.06,WSW,254,1.0,2.0,81,0.00,,---,0.00,VWS V14.01,2013-09-15 08:36:00,
2013-09-15 04:41:00,52.2,46.2,30.06,WSW,254,0.0,2.0,80,0.00,,---,0.00,VWS V14.01,2013-09-15 08:41:00,
2013-09-15 04:46:00,52.3,46.3,30.06,WSW,254,1.0,2.0,80,0.00,,---,0.00,VWS V14.01,2013-09-15 08:46:00,
2013-09-15 04:51:00,52.3,46.0,30.06,WSW,254,2.0,2.0,79,0.00,,---,0.00,VWS V14.01,2013-09-15 08:51:00,
2013-09-15 04:56:00,52.4,45.8,30.06,WSW,254,0.0,1.0,78,0.00,,---,0.00,VWS V14.01,2013-09-15 08:56:00,
2013-09-15 05:01:00,52.4,45.4,30.06,WSW,254,0.0,2.0,77,0.00,,---,0.00,VWS V14.01,2013-09-15 09:01:00,
2013-09-15 05:06:00,52.5,45.8,30.06,WSW,254,2.0,3.0,78,0.00,,---,0.00,VWS V14.01,2013-09-15 09:06:00,
2013-09-15 05:11:00,52.6,46.0,30.06,WSW,254,2.0,3.0,78,0.00,,---,0.00,VWS V14.01,2013-09-15 09:11:00,
2013-09-15 05:16:00,52.7,45.7,30.06,WSW,254,1.0,3.0,77,0.00,,---,0.00,VWS V14.01,2013-09-15 09:16:00,
2013-09-15 05:21:00,52.8,45.8,30.06,WSW,253,3.0,4.0,77,0.00,,---,0.00,VWS V14.01,2013-09-15 09:21:00,
2013-09-15 05:26:00,52.9,45.9,30.06,WSW,253,1.0,3.0,77,0.00,,---,0.00,VWS V14.01,2013-09-15 09:26:00,
2013-09-15 05:31:00,53.0,46.0,30.06,WSW,253,1.0,2.0,77,0.00,,---,0.00,VWS V14.01,2013-09-15 09:31:00,
2013-09-15 05:36:00,53.1,46.1,30.06,WSW,253,0.0,3.0,77,0.00,,---,0.00,VWS V14.01,2013-09-15 09:36:00,
2013-09-15 05:41:00,53.1,46.1,30.06,WSW,253,1.0,2.0,77,0.00,,---,0.00,VWS V14.01,2013-09-15 09:41:00,
2013-09-15 05:46:00,53.2,46.2,30.06,WSW,253,0.0,0.0,77,0.00,,---,0.00,VWS V14.01,2013-09-15 09:46:00,
2013-09-15 05:51:00,53.2,45.5,30.06,WSW,253,1.0,2.0,75,0.00,,---,0.00,VWS V14.01,2013-09-15 09:51:00,
2013-09-15 05:56:00,53.2,45.5,30.07,WSW,253,0.0,1.0,75,0.00,,---,0.00,VWS V14.01,2013-09-15 09:56:00,
2013-09-15 06:01:00,53.2,45.5,30.07,WSW,253,0.0,0.0,75,0.00,,---,0.00,VWS V14.01,2013-09-15 10:01:00,
2013-09-15 06:06:00,53.3,45.2,30.07,WSW,253,0.0,3.0,74,0.00,,---,0.00,VWS V14.01,2013-09-15 10:06:00,
2013-09-15 06:11:00,53.3,45.6,30.07,WSW,253,0.0,0.0,75,0.00,,---,0.00,VWS V14.01,2013-09-15 10:11:00,
2013-09-15 06:16:00,53.3,45.6,30.07,WSW,253,0.0,0.0,75,0.00,,---,0.00,VWS V14.01,2013-09-15 10:16:00,
2013-09-15 06:21:00,53.3,45.2,30.07,WSW,253,0.0,0.0,74,0.00,,---,0.00,VWS V14.01,2013-09-15 10:21:00,
2013-09-15 06:26:00,53.3,45.6,30.07,WSW,253,0.0,2.0,75,0.00,,---,0.00,VWS V14.01,2013-09-15 10:26:00,
2013-09-15 06:31:00,53.3,45.6,30.07,WSW,253,0.0,1.0,75,0.00,,---,0.00,VWS V14.01,2013-09-15 10:31:00,
2013-09-15 06:36:00,53.2,45.8,30.07,WSW,253,0.0,0.0,76,0.00,,---,0.00,VWS V14.01,2013-09-15 10:36:00,
2013-09-15 06:41:00,53.3,46.3,30.07,WSW,253,0.0,1.0,77,0.00,,---,0.00,VWS V14.01,2013-09-15 10:41:00,
2013-09-15 06:46:00,53.2,46.2,30.07,WSW,253,0.0,1.0,77,0.00,,---,0.00,VWS V14.01,2013-09-15 10:46:00,
2013-09-15 06:51:00,53.2,46.2,30.07,WSW,253,2.0,2.0,77,0.00,,---,0.00,VWS V14.01,2013-09-15 10:51:00,
2013-09-15 06:56:00,53.2,45.8,30.07,WSW,253,0.0,4.0,76,0.00,,---,0.00,VWS V14.01,2013-09-15 10:56:00,
2013-09-15 07:01:00,53.1,45.8,30.07,WSW,253,2.0,3.0,76,0.00,,---,0.00,VWS V14.01,2013-09-15 11:01:00,
2013-09-15 07:06:00,53.2,45.8,30.07,WSW,253,2.0,3.0,76,0.00,,---,0.00,VWS V14.01,2013-09-15 11:06:00,
2013-09-15 07:11:00,53.2,45.8,30.07,WSW,253,1.0,3.0,76,0.00,,---,0.00,VWS V14.01,2013-09-15 11:11:00,
2013-09-15 07:16:00,53.2,46.2,30.07,WSW,253,3.0,3.0,77,0.00,,---,0.00,VWS V14.01,2013-09-15 11:16:00,
2013-09-15 07:21:00,53.2,45.8,30.07,WSW,252,2.0,3.0,76,0.00,,---,0.00,VWS V14.01,2013-09-15 11:21:00,
2013-09-15 07:26:00,53.2,46.2,30.07,WSW,252,0.0,1.0,77,0.00,,---,0.00,VWS V14.01,2013-09-15 11:26:00,
2013-09-15 07:31:00,53.2,45.8,30.07,WSW,252,0.0,3.0,76,0.00,,---,0.00,VWS V14.01,2013-09-15 11:31:00,
2013-09-15 07:36:00,53.3,46.3,30.07,WSW,252,3.0,3.0,77,0.00,,---,0.00,VWS V14.01,2013-09-15 11:36:00,
2013-09-15 07:41:00,53.4,46.0,30.07,WSW,249,0.0,4.0,76,0.00,,---,0.00,VWS V14.01,2013-09-15 11:41:00,
2013-09-15 07:46:00,53.6,46.6,30.07,WSW,239,2.0,5.0,77,0.00,,---,0.00,VWS V14.01,2013-09-15 11:46:00,
2013-09-15 07:51:00,53.7,46.3,30.07,South,190,1.0,5.0,76,0.00,,---,0.00,VWS V14.01,2013-09-15 11:51:00,
2013-09-15 07:56:00,53.9,46.5,30.06,South,186,3.0,5.0,76,0.00,,---,0.00,VWS V14.01,2013-09-15 11:56:00,
2013-09-15 08:01:00,54.1,46.4,30.06,SSE,167,4.0,10.0,75,0.00,,---,0.00,VWS V14.01,2013-09-15 12:01:00,
2013-09-15 08:06:00,54.2,46.8,30.06,SSE,163,5.0,7.0,76,0.00,,---,0.00,VWS V14.01,2013-09-15 12:06:00,
2013-09-15 08:11:00,54.3,46.9,30.05,South,171,6.0,7.0,76,0.00,,---,0.00,VWS V14.01,2013-09-15 12:11:00,
2013-09-15 08:16:00,54.3,47.2,30.04,South,183,5.0,7.0,77,0.00,,---,0.00,VWS V14.01,2013-09-15 12:16:00,
2013-09-15 08:21:00,54.3,47.2,30.05,SSW,194,4.0,5.0,77,0.00,,---,0.00,VWS V14.01,2013-09-15 12:21:00,
2013-09-15 08:26:00,54.4,47.3,30.05,South,180,2.0,6.0,77,0.00,,---,0.00,VWS V14.01,2013-09-15 12:26:00,
2013-09-15 08:31:00,54.5,47.5,30.05,South,171,5.0,6.0,77,0.00,,---,0.00,VWS V14.01,2013-09-15 12:31:00,
2013-09-15 08:36:00,54.7,47.6,30.05,South,179,4.0,4.0,77,0.00,,---,0.00,VWS V14.01,2013-09-15 12:36:00,
2013-09-15 08:41:00,54.8,47.7,30.05,South,173,4.0,5.0,77,0.00,,---,0.00,VWS V14.01,2013-09-15 12:41:00,
2013-09-15 08:46:00,54.9,47.8,30.05,South,177,4.0,6.0,77,0.00,,---,0.00,VWS V14.01,2013-09-15 12:46:00,
2013-09-15 08:51:00,55.1,47.7,30.04,South,187,4.0,6.0,76,0.00,,---,0.00,VWS V14.01,2013-09-15 12:51:00,
2013-09-15 08:56:00,55.2,47.8,30.05,South,177,2.0,5.0,76,0.00,,---,0.00,VWS V14.01,2013-09-15 12:56:00,
2013-09-15 09:01:00,55.4,47.6,30.04,South,182,2.0,6.0,75,0.00,,---,0.00,VWS V14.01,2013-09-15 13:01:00,
2013-09-15 09:06:00,55.6,47.8,30.05,SSW,207,2.0,6.0,75,0.00,,---,0.00,VWS V14.01,2013-09-15 13:06:00,
2013-09-15 09:11:00,55.7,47.9,30.04,South,175,4.0,6.0,75,0.00,,---,0.00,VWS V14.01,2013-09-15 13:11:00,
2013-09-15 09:16:00,55.8,48.0,30.04,South,188,2.0,5.0,75,0.00,,---,0.00,VWS V14.01,2013-09-15 13:16:00,
2013-09-15 09:21:00,55.9,48.8,30.04,SSW,195,2.0,6.0,77,0.00,,---,0.00,VWS V14.01,2013-09-15 13:21:00,
2013-09-15 09:26:00,55.8,49.4,30.04,SSW,192,3.0,3.0,79,0.00,,---,0.00,VWS V14.01,2013-09-15 13:26:00,
2013-09-15 09:31:00,55.8,49.7,30.05,SSW,198,2.0,4.0,80,0.00,,---,0.00,VWS V14.01,2013-09-15 13:31:00,
2013-09-15 09:36:00,55.7,50.0,30.05,South,188,4.0,5.0,81,0.00,,---,0.00,VWS V14.01,2013-09-15 13:36:00,
2013-09-15 09:41:00,55.7,50.3,30.05,SSW,202,4.0,4.0,82,0.00,,---,0.00,VWS V14.01,2013-09-15 13:41:00,
2013-09-15 09:46:00,55.6,50.2,30.05,South,189,1.0,5.0,82,0.00,,---,0.00,VWS V14.01,2013-09-15 13:46:00,
2013-09-15 09:51:00,55.6,50.5,30.05,South,190,3.0,5.0,83,0.00,,---,0.00,VWS V14.01,2013-09-15 13:51:00,
2013-09-15 09:55:00,55.5,50.4,30.05,South,188,0.0,4.0,83,0.00,,---,0.00,VWS V14.01,2013-09-15 13:55:00,
2013-09-15 10:00:00,55.6,50.2,30.05,SSW,209,3.0,7.0,82,0.01,,---,0.01,VWS V14.01,2013-09-15 14:00:00,
2013-09-15 10:05:00,55.7,50.6,30.06,SSW,206,3.0,6.0,83,0.01,,---,0.01,VWS V14.01,2013-09-15 14:05:00,
2013-09-15 10:10:00,55.7,50.0,30.06,SSW,205,2.0,8.0,81,0.01,,---,0.01,VWS V14.01,2013-09-15 14:10:00,
2013-09-15 10:15:00,55.8,50.1,30.05,SSW,205,3.0,7.0,81,0.01,,---,0.01,VWS V14.01,2013-09-15 14:15:00,
2013-09-15 10:20:00,55.9,50.2,30.05,SW,219,2.0,4.0,81,0.01,,---,0.01,VWS V14.01,2013-09-15 14:20:00,
2013-09-15 10:25:00,56.0,50.3,30.06,SSW,213,3.0,5.0,81,0.01,,---,0.01,VWS V14.01,2013-09-15 14:25:00,
2013-09-15 10:30:00,56.1,50.4,30.05,SSW,200,3.0,5.0,81,0.01,,---,0.01,VWS V14.01,2013-09-15 14:30:00,
2013-09-15 10:35:00,56.2,50.8,30.06,SW,227,7.0,7.0,82,0.01,,---,0.01,VWS V14.01,2013-09-15 14:35:00,
2013-09-15 10:36:00,56.2,50.8,30.06,SSW,198,8.0,8.0,82,0.01,,---,0.01,VWS V14.01,2013-09-15 14:36:00,
2013-09-15 10:41:00,56.1,51.0,30.06,SW,215,4.0,8.0,83,0.01,,---,0.01,VWS V14.01,2013-09-15 14:41:00,
2013-09-15 10:46:00,56.0,51.2,30.06,SW,217,4.0,8.0,84,0.01,,---,0.01,VWS V14.01,2013-09-15 14:46:00,
2013-09-15 10:51:00,56.0,51.6,30.06,SSW,203,6.0,6.0,85,0.01,,---,0.01,VWS V14.01,2013-09-15 14:51:00,
2013-09-15 10:56:00,55.9,51.5,30.06,South,182,4.0,7.0,85,0.01,,---,0.01,VWS V14.01,2013-09-15 14:56:00,
2013-09-15 11:01:00,55.9,51.5,30.06,SSW,199,3.0,7.0,85,0.01,,---,0.01,VWS V14.01,2013-09-15 15:01:00,
2013-09-15 11:06:00,56.0,51.6,30.06,SSW,200,3.0,6.0,85,0.00,,---,0.01,VWS V14.01,2013-09-15 15:06:00,
2013-09-15 11:11:00,56.1,52.0,30.06,SSW,205,3.0,7.0,86,0.00,,---,0.01,VWS V14.01,2013-09-15 15:11:00,
2013-09-15 11:16:00,56.3,52.2,30.06,South,191,4.0,5.0,86,0.00,,---,0.01,VWS V14.01,2013-09-15 15:16:00,
2013-09-15 11:21:00,56.5,52.4,30.06,SW,219,5.0,8.0,86,0.00,,---,0.01,VWS V14.01,2013-09-15 15:21:00,
2013-09-15 11:26:00,56.6,52.5,30.06,South,179,4.0,7.0,86,0.00,,---,0.01,VWS V14.01,2013-09-15 15:26:00,
2013-09-15 11:31:00,56.6,52.5,30.06,SSW,213,2.0,7.0,86,0.00,,---,0.01,VWS V14.01,2013-09-15 15:31:00,
2013-09-15 11:36:00,56.6,52.5,30.06,SSW,211,0.0,7.0,86,0.00,,---,0.01,VWS V14.01,2013-09-15 15:36:00,
2013-09-15 11:41:00,56.6,52.5,30.06,SSW,212,2.0,3.0,86,0.00,,---,0.01,VWS V14.01,2013-09-15 15:41:00,
2013-09-15 11:46:00,56.6,52.8,30.05,SSW,207,1.0,3.0,87,0.00,,---,0.01,VWS V14.01,2013-09-15 15:46:00,
2013-09-15 11:51:00,56.7,52.9,30.06,SSW,211,0.0,5.0,87,0.00,,---,0.01,VWS V14.01,2013-09-15 15:51:00,
2013-09-15 11:56:00,56.7,52.9,30.06,SSW,208,4.0,5.0,87,0.00,,---,0.01,VWS V14.01,2013-09-15 15:56:00,
2013-09-15 12:01:00,56.8,53.0,30.06,SW,217,1.0,5.0,87,0.00,,---,0.01,VWS V14.01,2013-09-15 16:01:00,
2013-09-15 12:06:00,56.9,53.1,30.06,SSW,205,2.0,9.0,87,0.00,,---,0.01,VWS V14.01,2013-09-15 16:06:00,
2013-09-15 12:11:00,56.9,53.1,30.06,SSW,205,5.0,7.0,87,0.00,,---,0.01,VWS V14.01,2013-09-15 16:11:00,
2013-09-15 12:16:00,56.9,53.1,30.06,SW,215,4.0,5.0,87,0.00,,---,0.01,VWS V14.01,2013-09-15 16:16:00,
2013-09-15 12:21:00,56.9,53.1,30.07,SW,216,1.0,7.0,87,0.00,,---,0.01,VWS V14.01,2013-09-15 16:21:00,
2013-09-15 12:26:00,56.9,53.1,30.06,SW,233,5.0,6.0,87,0.00,,---,0.01,VWS V14.01,2013-09-15 16:26:00,
2013-09-15 12:31:00,56.9,53.1,30.06,SSW,196,0.0,4.0,87,0.00,,---,0.01,VWS V14.01,2013-09-15 16:31:00,
2013-09-15 12:36:00,57.0,53.5,30.06,SW,236,1.0,5.0,88,0.00,,---,0.01,VWS V14.01,2013-09-15 16:36:00,
2013-09-15 12:41:00,57.0,53.5,30.06,SW,236,2.0,3.0,88,0.00,,---,0.01,VWS V14.01,2013-09-15 16:41:00,
2013-09-15 12:46:00,57.1,53.6,30.06,SW,219,2.0,6.0,88,0.01,,---,0.02,VWS V14.01,2013-09-15 16:46:00,
2013-09-15 12:51:00,57.2,54.0,30.06,SW,219,1.0,3.0,89,0.01,,---,0.02,VWS V14.01,2013-09-15 16:51:00,
2013-09-15 12:56:00,57.2,54.0,30.06,SW,219,0.0,3.0,89,0.01,,---,0.02,VWS V14.01,2013-09-15 16:56:00,
2013-09-15 13:01:00,57.3,54.1,30.06,SW,219,0.0,0.0,89,0.01,,---,0.02,VWS V14.01,2013-09-15 17:01:00,
2013-09-15 13:06:00,57.5,54.6,30.06,SW,219,2.0,3.0,90,0.01,,---,0.02,VWS V14.01,2013-09-15 17:06:00,
2013-09-15 13:11:00,57.6,55.0,30.06,SW,219,2.0,3.0,91,0.01,,---,0.02,VWS V14.01,2013-09-15 17:11:00,
2013-09-15 13:16:00,57.7,55.1,30.06,SW,219,0.0,0.0,91,0.02,,---,0.03,VWS V14.01,2013-09-15 17:16:00,
2013-09-15 13:21:00,57.8,55.2,30.06,SW,219,0.0,0.0,91,0.03,,---,0.04,VWS V14.01,2013-09-15 17:21:00,
2013-09-15 13:26:00,57.9,55.3,30.06,SW,219,0.0,0.0,91,0.03,,---,0.04,VWS V14.01,2013-09-15 17:26:00,
2013-09-15 13:31:00,58.0,55.7,30.07,SW,219,0.0,0.0,92,0.03,,---,0.04,VWS V14.01,2013-09-15 17:31:00,
2013-09-15 13:36:00,58.1,55.8,30.07,SW,219,2.0,2.0,92,0.03,,---,0.04,VWS V14.01,2013-09-15 17:36:00,
2013-09-15 13:41:00,58.2,55.9,30.07,SW,219,0.0,1.0,92,0.03,,---,0.04,VWS V14.01,2013-09-15 17:41:00,
2013-09-15 13:46:00,58.3,56.0,30.07,SW,219,1.0,2.0,92,0.04,,---,0.05,VWS V14.01,2013-09-15 17:46:00,
2013-09-15 13:51:00,58.4,56.1,30.07,SW,219,0.0,3.0,92,0.03,,---,0.05,VWS V14.01,2013-09-15 17:51:00,
2013-09-15 13:56:00,58.4,56.1,30.06,SW,219,0.0,3.0,92,0.04,,---,0.06,VWS V14.01,2013-09-15 17:56:00,
2013-09-15 14:01:00,58.4,56.1,30.07,SW,219,2.0,4.0,92,0.04,,---,0.06,VWS V14.01,2013-09-15 18:01:00,
2013-09-15 14:06:00,58.4,56.1,30.06,SW,219,1.0,4.0,92,0.04,,---,0.06,VWS V14.01,2013-09-15 18:06:00,
2013-09-15 14:11:00,58.4,56.1,30.06,SW,219,0.0,4.0,92,0.04,,---,0.06,VWS V14.01,2013-09-15 18:11:00,
2013-09-15 14:16:00,58.4,56.1,30.06,SW,219,0.0,1.0,92,0.03,,---,0.06,VWS V14.01,2013-09-15 18:16:00,
2013-09-15 14:21:00,58.4,56.4,30.06,SW,219,2.0,4.0,93,0.03,,---,0.06,VWS V14.01,2013-09-15 18:21:00,
2013-09-15 14:26:00,58.5,56.5,30.06,SW,219,3.0,4.0,93,0.02,,---,0.06,VWS V14.01,2013-09-15 18:26:00,
2013-09-15 14:31:00,58.5,56.5,30.06,SW,219,0.0,3.0,93,0.02,,---,0.06,VWS V14.01,2013-09-15 18:31:00,
2013-09-15 14:36:00,58.5,56.5,30.06,SW,219,0.0,3.0,93,0.02,,---,0.06,VWS V14.01,2013-09-15 18:36:00,
2013-09-15 14:41:00,58.5,56.5,30.06,SW,219,0.0,5.0,93,0.02,,---,0.06,VWS V14.01,2013-09-15 18:41:00,
2013-09-15 14:46:00,58.5,56.5,30.05,SW,219,0.0,2.0,93,0.02,,---,0.06,VWS V14.01,2013-09-15 18:46:00,
2013-09-15 14:51:00,58.5,56.5,30.06,SW,219,2.0,3.0,93,0.01,,---,0.06,VWS V14.01,2013-09-15 18:51:00,
2013-09-15 14:56:00,58.4,56.4,30.05,SW,219,1.0,4.0,93,0.00,,---,0.06,VWS V14.01,2013-09-15 18:56:00,
2013-09-15 15:01:00,58.4,56.4,30.05,SW,219,0.0,0.0,93,0.00,,---,0.06,VWS V14.01,2013-09-15 19:01:00,
2013-09-15 15:06:00,58.4,56.4,30.05,SW,219,0.0,1.0,93,0.00,,---,0.06,VWS V14.01,2013-09-15 19:06:00,
2013-09-15 15:11:00,58.3,56.3,30.04,SW,219,0.0,2.0,93,0.00,,---,0.06,VWS V14.01,2013-09-15 19:11:00,
2013-09-15 15:16:00,58.2,56.2,30.05,SW,219,0.0,0.0,93,0.00,,---,0.06,VWS V14.01,2013-09-15 19:16:00,
2013-09-15 15:18:00,58.2,56.2,30.04,SW,219,0.0,0.0,93,0.00,,---,0.06,VWS V14.01,2013-09-15 19:18:00,
2013-09-15 15:23:00,58.2,56.2,30.04,SW,219,2.0,2.0,93,0.00,,---,0.06,VWS V14.01,2013-09-15 19:23:00,
2013-09-15 15:28:00,58.1,56.1,30.04,SW,219,0.0,0.0,93,0.00,,---,0.06,VWS V14.01,2013-09-15 19:28:00,
2013-09-15 15:33:00,58.1,56.1,30.05,SW,219,0.0,0.0,93,0.00,,---,0.06,VWS V14.01,2013-09-15 19:33:00,
2013-09-15 15:38:00,58.1,56.1,30.05,SW,219,0.0,0.0,93,0.00,,---,0.06,VWS V14.01,2013-09-15 19:38:00,
2013-09-15 15:43:00,58.1,56.1,30.05,SW,219,0.0,0.0,93,0.00,,---,0.06,VWS V14.01,2013-09-15 19:43:00,
2013-09-15 15:48:00,58.1,56.1,30.05,SW,219,0.0,0.0,93,0.00,,---,0.06,VWS V14.01,2013-09-15 19:48:00,
2013-09-15 15:53:00,58.1,56.1,30.05,SW,219,0.0,0.0,93,0.00,,---,0.06,VWS V14.01,2013-09-15 19:53:00,
2013-09-15 15:58:00,58.1,56.1,30.06,SW,219,0.0,0.0,93,0.00,,---,0.06,VWS V14.01,2013-09-15 19:58:00,
2013-09-15 16:03:00,58.2,56.2,30.06,SW,219,0.0,0.0,93,0.00,,---,0.06,VWS V14.01,2013-09-15 20:03:00,
2013-09-15 16:08:00,58.2,56.2,30.06,SW,219,0.0,0.0,93,0.00,,---,0.06,VWS V14.01,2013-09-15 20:08:00,
2013-09-15 16:13:00,58.2,56.2,30.06,SW,219,0.0,0.0,93,0.00,,---,0.06,VWS V14.01,2013-09-15 20:13:00,
2013-09-15 16:18:00,58.2,56.5,30.07,SW,219,0.0,2.0,94,0.00,,---,0.06,VWS V14.01,2013-09-15 20:18:00,
2013-09-15 16:23:00,58.2,56.2,30.06,SW,219,0.0,0.0,93,0.00,,---,0.06,VWS V14.01,2013-09-15 20:23:00,
2013-09-15 16:28:00,58.3,56.3,30.06,SW,219,2.0,4.0,93,0.00,,---,0.06,VWS V14.01,2013-09-15 20:28:00,
2013-09-15 16:33:00,58.3,56.6,30.06,SW,218,0.0,3.0,94,0.00,,---,0.06,VWS V14.01,2013-09-15 20:33:00,
2013-09-15 16:38:00,58.4,56.7,30.06,SW,218,2.0,5.0,94,0.00,,---,0.06,VWS V14.01,2013-09-15 20:38:00,
2013-09-15 16:43:00,58.5,56.8,30.06,SW,217,4.0,4.0,94,0.00,,---,0.06,VWS V14.01,2013-09-15 20:43:00,
2013-09-15 16:48:00,58.4,56.7,30.06,SW,217,2.0,5.0,94,0.00,,---,0.06,VWS V14.01,2013-09-15 20:48:00,
2013-09-15 16:53:00,58.4,56.7,30.06,SW,217,4.0,4.0,94,0.00,,---,0.06,VWS V14.01,2013-09-15 20:53:00,
2013-09-15 16:58:00,58.4,56.7,30.06,SSW,211,3.0,5.0,94,0.00,,---,0.06,VWS V14.01,2013-09-15 20:58:00,
2013-09-15 17:03:00,58.2,56.5,30.06,SSW,197,3.0,4.0,94,0.00,,---,0.06,VWS V14.01,2013-09-15 21:03:00,
2013-09-15 17:08:00,58.2,56.5,30.05,South,188,3.0,5.0,94,0.00,,---,0.06,VWS V14.01,2013-09-15 21:08:00,
2013-09-15 17:13:00,58.1,56.4,30.05,South,171,5.0,6.0,94,0.00,,---,0.06,VWS V14.01,2013-09-15 21:13:00,
2013-09-15 17:18:00,58.0,56.3,30.05,SSE,157,4.0,8.0,94,0.00,,---,0.06,VWS V14.01,2013-09-15 21:18:00,
2013-09-15 17:23:00,58.0,56.3,30.05,SSE,151,5.0,8.0,94,0.01,,---,0.07,VWS V14.01,2013-09-15 21:23:00,
2013-09-15 17:28:00,57.8,56.1,30.05,SSE,151,4.0,8.0,94,0.01,,---,0.07,VWS V14.01,2013-09-15 21:28:00,
2013-09-15 17:33:00,57.8,56.1,30.06,SSE,150,4.0,7.0,94,0.01,,---,0.07,VWS V14.01,2013-09-15 21:33:00,
2013-09-15 17:38:00,57.7,56.0,30.06,SSE,158,4.0,6.0,94,0.01,,---,0.07,VWS V14.01,2013-09-15 21:38:00,
2013-09-15 17:43:00,57.6,55.9,30.06,South,171,2.0,6.0,94,0.01,,---,0.07,VWS V14.01,2013-09-15 21:43:00,
2013-09-15 17:48:00,57.5,56.1,30.06,SSE,162,1.0,6.0,95,0.01,,---,0.07,VWS V14.01,2013-09-15 21:48:00,
2013-09-15 17:53:00,57.5,56.1,30.06,SSE,161,0.0,6.0,95,0.01,,---,0.07,VWS V14.01,2013-09-15 21:53:00,
2013-09-15 17:58:00,57.4,55.7,30.06,SSE,161,1.0,5.0,94,0.01,,---,0.07,VWS V14.01,2013-09-15 21:58:00,
2013-09-15 18:03:00,57.4,56.0,30.07,SSE,161,2.0,4.0,95,0.01,,---,0.07,VWS V14.01,2013-09-15 22:03:00,
2013-09-15 18:08:00,57.3,55.9,30.06,SSE,161,4.0,5.0,95,0.01,,---,0.07,VWS V14.01,2013-09-15 22:08:00,
2013-09-15 18:13:00,57.3,55.9,30.06,SSE,160,4.0,5.0,95,0.01,,---,0.07,VWS V14.01,2013-09-15 22:13:00,
2013-09-15 18:18:00,57.3,55.9,30.06,SSE,155,2.0,5.0,95,0.01,,---,0.07,VWS V14.01,2013-09-15 22:18:00,
2013-09-15 18:23:00,57.2,55.8,30.06,SSE,152,2.0,5.0,95,0.01,,---,0.07,VWS V14.01,2013-09-15 22:23:00,
2013-09-15 18:28:00,57.2,55.8,30.06,SSE,152,0.0,4.0,95,0.00,,---,0.07,VWS V14.01,2013-09-15 22:28:00,
2013-09-15 18:32:00,57.1,55.7,30.07,SSE,153,0.0,5.0,95,0.00,,---,0.07,VWS V14.01,2013-09-15 22:32:00,
2013-09-15 18:37:00,57.0,55.6,30.07,SSE,153,0.0,2.0,95,0.01,,---,0.08,VWS V14.01,2013-09-15 22:37:00,
2013-09-15 18:42:00,56.9,55.5,30.07,SSE,153,0.0,4.0,95,0.01,,---,0.08,VWS V14.01,2013-09-15 22:42:00,
2013-09-15 18:47:00,56.7,55.3,30.07,SSE,153,0.0,4.0,95,0.01,,---,0.08,VWS V14.01,2013-09-15 22:47:00,
2013-09-15 18:52:00,56.6,55.2,30.07,SSE,153,0.0,0.0,95,0.01,,---,0.08,VWS V14.01,2013-09-15 22:52:00,
2013-09-15 18:57:00,56.6,55.2,30.07,SSE,152,0.0,0.0,95,0.01,,---,0.08,VWS V14.01,2013-09-15 22:57:00,
2013-09-15 19:02:00,56.6,55.2,30.07,SSE,153,0.0,0.0,95,0.01,,---,0.08,VWS V14.01,2013-09-15 23:02:00,
2013-09-15 19:07:00,56.6,55.2,30.07,SSE,153,0.0,0.0,95,0.01,,---,0.08,VWS V14.01,2013-09-15 23:07:00,
2013-09-15 19:12:00,56.6,55.2,30.08,SSE,153,0.0,0.0,95,0.01,,---,0.08,VWS V14.01,2013-09-15 23:12:00,
2013-09-15 19:17:00,56.7,55.3,30.07,SSE,153,0.0,0.0,95,0.01,,---,0.08,VWS V14.01,2013-09-15 23:17:00,
2013-09-15 19:22:00,56.7,55.3,30.08,SSE,153,0.0,0.0,95,0.01,,---,0.08,VWS V14.01,2013-09-15 23:22:00,
2013-09-15 19:27:00,56.7,55.3,30.08,SSE,153,0.0,2.0,95,0.01,,---,0.08,VWS V14.01,2013-09-15 23:27:00,
2013-09-15 19:32:00,56.7,55.3,30.08,SSE,153,0.0,1.0,95,0.01,,---,0.08,VWS V14.01,2013-09-15 23:32:00,
2013-09-15 19:37:00,56.8,55.4,30.08,SSE,153,0.0,1.0,95,0.01,,---,0.08,VWS V14.01,2013-09-15 23:37:00,
2013-09-15 19:42:00,56.8,55.4,30.09,SSE,153,0.0,0.0,95,0.00,,---,0.08,VWS V14.01,2013-09-15 23:42:00,
2013-09-15 19:47:00,56.8,55.7,30.08,SSE,153,2.0,2.0,96,0.00,,---,0.08,VWS V14.01,2013-09-15 23:47:00,
2013-09-15 19:52:00,56.7,55.6,30.09,SSE,153,4.0,4.0,96,0.00,,---,0.08,VWS V14.01,2013-09-15 23:52:00,
2013-09-15 19:57:00,56.7,55.6,30.08,SSE,153,0.0,4.0,96,0.00,,---,0.08,VWS V14.01,2013-09-15 23:57:00,
2013-09-15 20:02:00,56.6,55.2,30.09,SSE,153,4.0,5.0,95,0.00,,---,0.08,VWS V14.01,2013-09-16 00:02:00,
2013-09-15 20:07:00,56.4,55.0,30.09,SSE,154,1.0,6.0,95,0.00,,---,0.08,VWS V14.01,2013-09-16 00:07:00,
2013-09-15 20:12:00,56.2,54.8,30.09,SSE,154,2.0,5.0,95,0.00,,---,0.08,VWS V14.01,2013-09-16 00:12:00,
2013-09-15 20:17:00,56.0,54.6,30.09,SSE,154,2.0,6.0,95,0.00,,---,0.08,VWS V14.01,2013-09-16 00:17:00,
2013-09-15 20:22:00,55.9,54.5,30.09,SSE,154,4.0,5.0,95,0.00,,---,0.08,VWS V14.01,2013-09-16 00:22:00,
2013-09-15 20:27:00,55.8,54.4,30.10,SSE,154,2.0,6.0,95,0.00,,---,0.08,VWS V14.01,2013-09-16 00:27:00,
2013-09-15 20:32:00,55.7,54.3,30.10,SSE,154,2.0,6.0,95,0.00,,---,0.08,VWS V14.01,2013-09-16 00:32:00,
2013-09-15 20:37:00,55.7,54.3,30.10,SSE,155,2.0,5.0,95,0.00,,---,0.08,VWS V14.01,2013-09-16 00:37:00,
2013-09-15 20:42:00,55.7,54.3,30.10,SSE,155,2.0,2.0,95,0.00,,---,0.08,VWS V14.01,2013-09-16 00:42:00,
2013-09-15 20:47:00,55.7,54.3,30.10,SSE,155,2.0,5.0,95,0.00,,---,0.08,VWS V14.01,2013-09-16 00:47:00,
2013-09-15 20:52:00,55.7,54.3,30.09,SSE,155,0.0,4.0,95,0.00,,---,0.08,VWS V14.01,2013-09-16 00:52:00,
2013-09-15 20:57:00,55.6,54.2,30.10,SSE,155,0.0,4.0,95,0.00,,---,0.08,VWS V14.01,2013-09-16 00:57:00,
2013-09-15 21:02:00,55.6,54.2,30.10,SSE,155,0.0,2.0,95,0.00,,---,0.08,VWS V14.01,2013-09-16 01:02:00,
2013-09-15 21:07:00,55.6,54.2,30.10,SSE,155,0.0,0.0,95,0.00,,---,0.08,VWS V14.01,2013-09-16 01:07:00,
2013-09-15 21:12:00,55.6,54.2,30.10,SSE,155,0.0,0.0,95,0.00,,---,0.08,VWS V14.01,2013-09-16 01:12:00,
2013-09-15 21:17:00,55.7,54.6,30.10,SSE,155,0.0,0.0,96,0.00,,---,0.08,VWS V14.01,2013-09-16 01:17:00,
2013-09-15 21:22:00,55.7,54.6,30.11,SSE,155,0.0,0.0,96,0.00,,---,0.08,VWS V14.01,2013-09-16 01:22:00,
2013-09-15 21:27:00,55.7,54.6,30.11,SSE,155,0.0,0.0,96,0.00,,---,0.08,VWS V14.01,2013-09-16 01:27:00,
2013-09-15 21:32:00,55.8,54.7,30.11,SSE,155,0.0,0.0,96,0.00,,---,0.08,VWS V14.01,2013-09-16 01:32:00,
2013-09-15 21:37:00,55.8,54.7,30.11,SSE,155,0.0,0.0,96,0.00,,---,0.08,VWS V14.01,2013-09-16 01:37:00,
2013-09-15 21:42:00,55.8,54.7,30.12,SSE,155,0.0,0.0,96,0.00,,---,0.08,VWS V14.01,2013-09-16 01:42:00,
2013-09-15 21:47:00,55.8,54.7,30.12,SSE,155,0.0,0.0,96,0.00,,---,0.08,VWS V14.01,2013-09-16 01:47:00,
2013-09-15 21:52:00,55.8,54.7,30.12,SSE,155,0.0,0.0,96,0.00,,---,0.08,VWS V14.01,2013-09-16 01:52:00,
2013-09-15 21:57:00,55.8,54.7,30.12,SSE,155,0.0,0.0,96,0.00,,---,0.08,VWS V14.01,2013-09-16 01:57:00,
2013-09-15 22:02:00,55.8,54.7,30.13,SSE,155,0.0,0.0,96,0.00,,---,0.08,VWS V14.01,2013-09-16 02:02:00,
2013-09-15 22:07:00,55.9,54.8,30.12,SSE,155,0.0,0.0,96,0.00,,---,0.08,VWS V14.01,2013-09-16 02:07:00,
2013-09-15 22:12:00,55.9,54.8,30.12,SSE,155,0.0,0.0,96,0.00,,---,0.08,VWS V14.01,2013-09-16 02:12:00,
2013-09-15 22:17:00,55.8,54.7,30.12,SSE,155,0.0,0.0,96,0.00,,---,0.08,VWS V14.01,2013-09-16 02:17:00,
2013-09-15 22:22:00,55.8,54.7,30.13,SSE,155,0.0,0.0,96,0.00,,---,0.08,VWS V14.01,2013-09-16 02:22:00,
2013-09-15 22:27:00,55.8,54.7,30.13,SSE,155,0.0,0.0,96,0.00,,---,0.08,VWS V14.01,2013-09-16 02:27:00,
2013-09-15 22:32:00,55.8,54.7,30.13,SSE,155,0.0,0.0,96,0.00,,---,0.08,VWS V14.01,2013-09-16 02:32:00,
2013-09-15 22:37:00,55.8,54.7,30.13,SSE,155,0.0,0.0,96,0.00,,---,0.08,VWS V14.01,2013-09-16 02:37:00,
2013-09-15 22:42:00,55.7,54.6,30.13,SSE,155,0.0,0.0,96,0.00,,---,0.08,VWS V14.01,2013-09-16 02:42:00,
2013-09-15 22:47:00,55.7,54.6,30.13,SSE,155,0.0,0.0,96,0.00,,---,0.08,VWS V14.01,2013-09-16 02:47:00,
2013-09-15 22:52:00,55.7,54.6,30.13,SSE,155,0.0,0.0,96,0.00,,---,0.08,VWS V14.01,2013-09-16 02:52:00,
2013-09-15 22:57:00,55.6,54.5,30.14,SSE,155,0.0,0.0,96,0.00,,---,0.08,VWS V14.01,2013-09-16 02:57:00,
2013-09-15 23:02:00,55.6,54.5,30.14,SSE,155,0.0,0.0,96,0.00,,---,0.08,VWS V14.01,2013-09-16 03:02:00,
2013-09-15 23:07:00,55.6,54.5,30.14,SSE,155,0.0,0.0,96,0.00,,---,0.08,VWS V14.01,2013-09-16 03:07:00,
2013-09-15 23:12:00,55.6,54.5,30.14,SSE,155,0.0,0.0,96,0.00,,---,0.08,VWS V14.01,2013-09-16 03:12:00,
2013-09-15 23:17:00,55.6,54.8,30.14,SSE,155,0.0,0.0,97,0.00,,---,0.08,VWS V14.01,2013-09-16 03:17:00,
2013-09-15 23:22:00,55.6,54.8,30.14,SSE,155,0.0,0.0,97,0.00,,---,0.08,VWS V14.01,2013-09-16 03:22:00,
2013-09-15 23:27:00,55.5,54.7,30.14,SSE,155,0.0,0.0,97,0.00,,---,0.08,VWS V14.01,2013-09-16 03:27:00,
2013-09-15 23:32:00,55.6,54.8,30.13,SSE,155,0.0,0.0,97,0.00,,---,0.08,VWS V14.01,2013-09-16 03:32:00,
2013-09-15 23:37:00,55.5,54.7,30.14,SSE,155,0.0,0.0,97,0.00,,---,0.08,VWS V14.01,2013-09-16 03:37:00,
2013-09-15 23:42:00,55.3,54.2,30.14,SSE,155,0.0,0.0,96,0.00,,---,0.08,VWS V14.01,2013-09-16 03:42:00,
2013-09-15 23:47:00,55.2,54.1,30.14,SSE,155,0.0,0.0,96,0.00,,---,0.08,VWS V14.01,2013-09-16 03:47:00,
2013-09-15 23:52:00,54.9,53.8,30.14,SSE,155,0.0,0.0,96,0.00,,---,0.08,VWS V14.01,2013-09-16 03:52:00,
2013-09-15 23:57:00,54.7,53.6,30.15,SSE,155,0.0,0.0,96,0.00,,---,0.08,VWS V14.01,2013-09-16 03:57:00,